Hourly Data Report for September 02, 2003

TORONTO CITY
ONTARIO

43°40'00.000" N
79°24'00.000" W
112.50 m
6158355
71508
XTO

Download Data

Hourly Data (September 2003)
Hourly Data Report for September 2, 2003
TIME
LST
Temp Definition
°C
Dew Point Definition
°C
Rel Hum Definition
%
Precip. Amount Definition
mm

Wind Dir Definition
10's deg

Wind Spd Definition
km/h
Visibility Definition
km
Stn Press Definition
kPa
Hmdx Definition


Wind Chill Definition


Weather Definition


00:00 17.7 14.5 82   LegendMM LegendMM LegendMM 100.60     LegendNANA
01:00 16.4 14.2 87   LegendMM LegendMM LegendMM 100.58     LegendNANA
02:00 16.3 14.7 90   LegendMM LegendMM LegendMM 100.56     LegendNANA
03:00 16.3 14.1 87   LegendMM LegendMM LegendMM 100.55     LegendNANA
04:00 16.6 14.2 86   LegendMM LegendMM LegendMM 100.56     LegendNANA
05:00 16.3 13.7 85   LegendMM LegendMM LegendMM 100.60     LegendNANA
06:00 16.0 14.1 88   LegendMM LegendMM LegendMM 100.64     LegendNANA
07:00 17.1 13.1 77   LegendMM LegendMM LegendMM 100.67     LegendNANA
08:00 18.7 14.1 75   LegendMM LegendMM LegendMM 100.71     LegendNANA
09:00 20.4 15.4 73   LegendMM LegendMM LegendMM 100.70 25   LegendNANA
10:00 21.2 16.1 73   LegendMM LegendMM LegendMM 100.71 26   LegendNANA
11:00 21.3 15.6 70   LegendMM LegendMM LegendMM 100.71 26   LegendNANA
12:00 21.2 15.5 70   LegendMM LegendMM LegendMM 100.69 25   LegendNANA
13:00 21.9 15.6 67   LegendMM LegendMM LegendMM 100.69 26   LegendNANA
14:00 22.0 15.4 66   LegendMM LegendMM LegendMM 100.66 26   LegendNANA
15:00 22.0 14.3 62   LegendMM LegendMM LegendMM 100.61 26   LegendNANA
16:00 21.6 14.3 63   LegendMM LegendMM LegendMM 100.57 25   LegendNANA
17:00 20.4 14.4 68   LegendMM LegendMM LegendMM 100.55     LegendNANA
18:00 20.2 14.8 71   LegendMM LegendMM LegendMM 100.54     LegendNANA
19:00 19.3 15.8 80   LegendMM LegendMM LegendMM 100.54     LegendNANA
20:00 19.0 16.0 83   LegendMM LegendMM LegendMM 100.54     LegendNANA
21:00 19.4 16.6 84   LegendMM LegendMM LegendMM 100.53     LegendNANA
22:00 19.4 16.9 85   LegendMM LegendMM LegendMM 100.52     LegendNANA
23:00 19.1 16.8 87   LegendMM LegendMM LegendMM 100.49     LegendNANA

Notes on Data Quality.

Legend

  • E = Estimated
  • M = Missing
  • NA = Not Available*
  • [empty] = Indicates an unobserved value
Date modified: